星链-4709 (STARLINK-4709 )

导读 | 豆包AI

STARLINK-4709是美国SpaceX公司星链(Starlink)星座中的一颗低轨通信卫星,于2022年9月11日发射升空,属于星链全球卫星互联网组网计划的组成部分。星链项目旨在通过部署上万颗低轨卫星,为全球提供高速低延迟的宽带互联网服务,重点覆盖地面网络难以抵达的偏远区域。作为星链星座的一员,该卫星运行在近地轨道,助力SpaceX逐步实现全球泛在互联的目标,同时也推动了全球卫星互联网产业的发展。

Basic Information
目录编号:
53778
目录名称:
STARLINK-4709
国际标识:
2022-111F
轨道中心:
EARTH
卫星名称:
星链-4709
卫星全名:
星链-4709 (STARLINK-4709 )
卫星状态:
在轨 (已飞行1281 天)
发射日期:
2022-09-11 UTC
国别 :
美国 (US)
星等 :
--
Orbit Information
数据来源 国际轨道数据 AOE轨道数据
星历时间 2026-03-15T05:09:11+0800
12小时前
查看轨道信息
2026-03-13T10:00:00+0800
2天前
查看轨道信息
半长轴 6917.886km 6917.882km
偏心率 0.0001277 0.0001143
轨道倾角 53.216° 53.216°
近地点辐角 87.175° 88.266°
升交点赤经 255.542° 263.616°
平近点角 272.939° 219.872°
近地点 538.865km 538.954km
远地点 540.633km 540.536km
周期 95.438分钟 95.438分钟
每日圈数 15.088382 15.088395
Detailed Information
固有亮度:
5
最大亮度:
2.5
卫星平台:
Starlink v1.5
覆盖范围:
全球
运营商:
太空探索技术公司
运营商所在国:
美国
制造商(研发单位):
太空探索技术公司
制造商所在国:
美国
使用方式:
暂无
Satellite Introduction
星链(Starlink)计划是由太空探索技术公司(SpaceX)提出的一个巨型低轨卫星互联网星座项目,计划在2019年至2024年间在太空搭建由约1.2万颗卫星组成的“星链”网络,其中1584颗将部署在地球上空550千米处的近地轨道,并从2020年开始工作。该卫星仍在工作。
2D Orbit Map
3D Orbit Map
Orbit Altitude Analysis Chart
Orbit Inclination Analysis Chart
Orbit Comprehensive Analysis Chart
View Comprehensive Chart